Weather History for Racine, WI

Change the Weather History Date:

Saturday, October 6, 2012

  Actual Average Record
Temperature  
Mean Temperature 40 °F -  
Max Temperature 48 °F 63 °F 91 °F (1963)
Min Temperature 35 °F 45 °F 26 °F (1952)
Degree Days  
Heating Degree Days 24    
Moisture  
Dew Point 27 °F    
Average Humidity 56    
Maximum Humidity 72    
Minimum Humidity 46    
Precipitation  
Precipitation 0.00 in - - ()
Sea Level Pressure  
Sea Level Pressure 30.13 in    
Wind  
Wind Speed 7 mph (WNW)    
Max Wind Speed 15 mph    
Max Gust Speed 22 mph    
Visibility 10 miles    
Events      
Averages and records for this station are not official NWS values.
T = Trace of Precipitation, MM = Missing Value Source: NWS Daily Summary

Daily Weather History Graph

Daily Weather History Graph

Search for Another Location

Airport:

Trip Planner

Search our weather history database for the weather conditions in past years. The results will help you decide how hot, cold, wet, or windy it might be!

Date:

Astronomy

Oct. 06, 2012 Rise Set
Actual Time 6:54 AM CDT 6:23 PM CDT
Civil Twilight 6:26 AM CDT 6:51 PM CDT
Nautical Twilight 5:53 AM CDT 7:23 PM CDT
Astronomical Twilight 5:20 AM CDT 7:56 PM CDT
Moon 10:32 PM CDT (10/6) 12:55 PM CDT (10/6)
Length of Visible Light 12h 24m
Length of Day
11h 28m
Waning Gibbous, 65% of the Moon is Illuminated
Oct 6
Waning Gibbous
Oct 8
Last Quarter
Oct 15
New
Oct 21
First Quarter
Oct 29
Full

Hourly Weather History & Observations

Time (CDT) Temp. Windchill Dew Point Humidity Pressure Visibility Wind Dir Wind Speed Gust Speed Precip Events Conditions
12:53 AM 37.9 °F 32.1 °F 25.0 °F 60% 30.05 in 10.0 mi West 8.1 mph - N/A   Clear
1:53 AM 36.0 °F 32.1 °F 25.0 °F 64% 30.06 in 10.0 mi West 4.6 mph - N/A   Clear
2:53 AM 35.1 °F 29.3 °F 26.1 °F 70% 30.07 in 10.0 mi West 6.9 mph - N/A   Partly Cloudy
3:53 AM 37.9 °F 34.4 °F 26.1 °F 62% 30.07 in 10.0 mi West 4.6 mph - N/A   Overcast
4:53 AM 35.1 °F 31.0 °F 27.0 °F 72% 30.07 in 10.0 mi WSW 4.6 mph - N/A   Clear
5:53 AM 35.1 °F 29.3 °F 26.1 °F 70% 30.09 in 10.0 mi West 6.9 mph - N/A   Clear
6:53 AM 35.1 °F 29.3 °F 26.1 °F 70% 30.09 in 10.0 mi West 6.9 mph - N/A   Clear
7:53 AM 37.0 °F 33.3 °F 27.0 °F 67% 30.11 in 10.0 mi West 4.6 mph - N/A   Clear
8:53 AM 41.0 °F 34.7 °F 27.0 °F 57% 30.12 in 10.0 mi WNW 10.4 mph 18.4 mph N/A   Partly Cloudy
9:53 AM 43.0 °F 35.7 °F 27.0 °F 53% 30.13 in 10.0 mi WNW 15.0 mph 20.7 mph N/A   Mostly Cloudy
10:53 AM 44.1 °F 38.6 °F 27.0 °F 51% 30.14 in 10.0 mi West 10.4 mph 21.9 mph N/A   Mostly Cloudy
11:53 AM 45.0 °F 39.7 °F 27.0 °F 49% 30.14 in 10.0 mi NW 10.4 mph - N/A   Overcast
12:53 PM 46.0 °F 41.4 °F 27.0 °F 47% 30.15 in 10.0 mi WNW 9.2 mph 20.7 mph N/A   Overcast
1:53 PM 46.0 °F 41.4 °F 27.0 °F 47% 30.15 in 10.0 mi NW 9.2 mph - N/A   Overcast
2:53 PM 46.0 °F 41.4 °F 26.1 °F 46% 30.14 in 10.0 mi NW 9.2 mph - N/A   Overcast
3:53 PM 46.0 °F 43.1 °F 26.1 °F 46% 30.14 in 10.0 mi WNW 5.8 mph - N/A   Overcast
4:53 PM 46.0 °F 42.5 °F 26.1 °F 46% 30.15 in 10.0 mi West 6.9 mph - N/A   Overcast
5:53 PM 46.0 °F 42.5 °F 26.1 °F 46% 30.17 in 10.0 mi West 6.9 mph - N/A   Overcast
6:53 PM 45.0 °F 40.6 °F 26.1 °F 48% 30.18 in 10.0 mi WNW 8.1 mph - N/A   Overcast
7:53 PM 44.1 °F 40.8 °F 27.0 °F 51% 30.19 in 10.0 mi WNW 5.8 mph - N/A   Overcast
8:53 PM 44.1 °F 40.8 °F 27.0 °F 51% 30.19 in 10.0 mi WNW 5.8 mph - N/A   Overcast
9:53 PM 43.0 °F 38.8 °F 27.0 °F 53% 30.19 in 10.0 mi WNW 6.9 mph - N/A   Overcast
10:53 PM 42.1 °F 37.7 °F 27.0 °F 55% 30.19 in 10.0 mi WNW 6.9 mph - N/A   Overcast
11:53 PM 41.0 °F 38.0 °F 28.0 °F 60% 30.18 in 10.0 mi WNW 4.6 mph - N/A   Overcast